Location: San Vito
(41.8833°N, 12.9833°E)
Time: 02:47:37
(UTC+00:00)

Cosmos 1356 Rocket - Pass Details

Date: 17 November 2019
Orbit: 543 x 598 km, 81.2° (Epoch: 15 December)

Event Time Altitude Azimuth Distance (km) Brightness Sun altitude
Exits shadow 04:19:38 33° 240° (WSW) 999 4.2 -18.6°
Drops below altitude 10° 04:22:43 10° 200° (SSW) 1,918 6.0 -18.0°
Sets 04:25:00 0° 192° (SSW) 2,807 6.9 -17.6°
